Regional Weather Roundup
Issued by NWS Burlington, VT

Current Version | Previous Version | Graphics & Text | Print | Product List | Glossary Off
Versions: 1 2 3 4 5 6 7 8 9 10 11 12 13 14 15 16 17 18 19 20 21 22 23 24 25 26 27 28 29 30 31 32 33 34 35 36 37 38 39 40 41 42 43 44 45 46 47 48 49 50

000
ASUS41 KBTV 010510
RWRBTV
VERMONT REGIONAL WEATHER ROUNDUP
NATIONAL WEATHER SERVICE BURLINGTON VT
100 AM EDT TUE SEP 01 2015

NOTE: "FAIR" INDICATES FEW OR NO CLOUDS BELOW 12,000 FEET WITH NO
SIGNIFICANT WEATHER AND/OR OBSTRUCTIONS TO VISIBILITY.

* THESE REPORTS ARE NOT UNDER NWS QUALITY CONTROL AND/OR DO NOT
  REPORT WEATHER SUCH AS PRECIPITATION AND FOG.

VTZ001>019-010600-
_____VERMONT_____


CITY           SKY/WX    TMP DP  RH WIND       PRES   REMARKS
BURLINGTON     CLEAR     65  61  87 CALM      30.00S
MONTPELIER     PTCLDY    62  59  90 SW3       30.06S
MORRISVILLE    CLEAR     60  57  89 CALM      30.03R FOG
ST. JOHNSBURY*   N/A     61  58  90 MISG      29.99R
LYNDONVILLE*   FAIR      63  59  88 CALM      30.04R
MIDDLEBURY*    FAIR      65  63  92 S3        30.00S
RUTLAND*       MOCLDY    64  57  77 CALM      30.03R
SPRINGFIELD    PTCLDY    61  60  97 S3        30.02R
HIGHGATE*      FAIR      66  62  88 N3        30.00R
NEWPORT*       FAIR      63  60  88 CALM      30.02S
BENNINGTON     FAIR      63  60  90 S5        30.03R
SUTTON*          N/A     61 N/A N/A MISG        N/A

_____LAKE CHAMPLAIN_____


CITY           SKY/WX    TMP DP  RH WIND       PRES   REMARKS

$$

NYZ007-026>031-035-052-083-010600-
_____NORTHERN NEW YORK_____


CITY           SKY/WX    TMP DP  RH WIND       PRES   REMARKS
PLATTSBURGH    CLEAR     65  60  84 W5        29.99R
SARANAC LAKE   FOG       54  54 100 CALM      30.06R VSB 1/4
MASSENA        FOG       59  57  93 CALM      30.02R VSB 1/4
OGDENSBURG*    CLEAR     61  59  94 CALM      30.02R FOG
POTSDAM*       FOG       61  61 100 CALM      30.03S VSB 3/4
WATERTOWN      FOG       62  61  96 CALM      30.01S VSB 1/2
FT DRUM        CLEAR     66  64  95 SE6       30.02S
ALBANY         MOCLDY    71  62  73 CALM      30.01R
GLENS FALLS    PTCLDY    65  61  87 CALM      30.01R

$$
NHZ002-005-011-010600-
_____NEW HAMPSHIRE_____


CITY           SKY/WX    TMP DP  RH WIND       PRES   REMARKS
LEBANON        PTCLDY    62  60  93 S6        30.00R
KEENE          CLEAR     63  57  82 NE3       30.01R
MT WASHINGTON  LGT RAIN  46  46 100 NW47G54     N/A  VSB 1/16
PLYMOUTH       FAIR      60  58  93 CALM      29.99S FOG
WHITEFIELD     PTCLDY    60  58  92 CALM      30.02R FOG

$$

_____REGIONAL QUEBEC LOCATIONS_____


CITY           SKY/WX    TMP DP  RH WIND       PRES   REMARKS
MONTREAL       PTCLDY    66  63  88 CALM      30.00R
QUEBEC CITY    CLEAR     57  52  82 NW9       29.96F
SHERBROOKE     CLEAR     57  57 100 CALM      30.00S FOG

_____REGIONAL ONTARIO LOCATIONS_____


CITY           SKY/WX    TMP DP  RH WIND       PRES   REMARKS
OTTAWA         PTCLDY    59  59 100 S6        30.02R

______KEY______
VSB  - VISIBILITY IN MILES
WCI  - WIND CHILL INDEX
HX   - HEAT INDEX
$$
NNNN


USA.gov is the U.S. government's official web portal to all federal, state and local government web resources and services.